CW9968 Weather Reports


time (UTC)temp
C
wind
direction
speed
KPH
gust
KPH
rain 1hr
cm
rain 24hr
cm
rain mn
cm
humidity
%
barometer
mb
20260906090804 18 334 0.0 0.0 0.00 0.00 0.00 88 1016.6
20260906090304 19 334 0.0 0.0 0.00 0.00 0.00 88 1016.5
20260906085804 19 334 0.0 0.0 0.00 0.00 0.00 88 1016.6
20260906085306 19 335 0.0 1.6 0.00 0.00 0.00 88 1016.5
20260906084304 19 334 0.0 1.6 0.00 0.00 0.00 88 1016.5
20260906083803 20 335 0.0 3.2 0.00 0.00 0.00 88 1016.4
20260906083304 20 335 0.0 1.6 0.00 0.00 0.00 88 1016.4
20260906081304 20 335 0.0 0.0 0.00 0.00 0.00 88 1016.3
20260906080304 20 335 0.0 0.0 0.00 0.00 0.00 88 1016.4
20260906075804 20 334 0.0 0.0 0.00 0.00 0.00 88 1016.4
20260906075306 20 334 0.0 0.0 0.00 0.00 0.00 88 1016.5
20260906074804 20 334 0.0 0.0 0.00 0.00 0.00 88 1016.5
20260906074304 20 334 0.0 0.0 0.00 0.00 0.00 88 1016.5
20260906073804 20 334 0.0 0.0 0.00 0.00 0.00 88 1016.5
20260906072804 21 334 0.0 0.0 0.00 0.00 0.00 88 1016.5
20260906072306 21 335 0.0 0.0 0.00 0.00 0.00 88 1016.4
20260906071804 21 334 0.0 0.0 0.00 0.00 0.00 88 1016.4
20260906071304 21 334 0.0 0.0 0.00 0.00 0.00 88 1016.5
20260906070303 21 334 0.0 0.0 0.00 0.00 0.00 88 1016.5
20260906065305 21 335 0.0 0.0 0.00 0.00 0.00 88 1016.4
20260906064804 21 335 0.0 0.0 0.00 0.00 0.00 88 1016.3
20260906063804 21 334 0.0 0.0 0.00 0.00 0.00 88 1016.3
20260906063305 21 334 0.0 0.0 0.00 0.00 0.00 88 1016.3
20260906062804 21 335 0.0 0.0 0.00 0.00 0.00 88 1016.3
20260906061304 21 334 0.0 0.0 0.00 0.00 0.00 88 1016.4
20260906060804 21 334 0.0 0.0 0.00 0.00 0.00 88 1016.3
20260906060304 21 335 0.0 0.0 0.00 0.00 0.00 88 1016.3
20260906055804 21 335 0.0 0.0 0.00 0.00 0.00 88 1016.3
20260906055306 21 334 0.0 0.0 0.00 0.00 0.00 88 1016.3
20260906054804 21 335 0.0 0.0 0.00 0.00 0.00 88 1016.1
20260906054304 21 334 0.0 0.0 0.00 0.00 0.00 88 1016.1
20260906053805 21 334 0.0 0.0 0.00 0.00 0.00 88 1016.0
20260906052804 21 334 0.0 0.0 0.00 0.00 0.00 88 1016.0
20260906052305 21 334 0.0 0.0 0.00 0.00 0.00 88 1016.0
20260906051803 21 335 0.0 0.0 0.00 0.00 0.00 88 1016.1
20260906051305 21 335 0.0 0.0 0.00 0.00 0.00 88 1016.1
20260906050803 21 334 0.0 0.0 0.00 0.00 0.00 88 1016.2
20260906050304 21 334 0.0 0.0 0.00 0.00 0.00 88 1016.1
20260906045804 21 334 0.0 0.0 0.00 0.00 0.00 88 1016.2
20260906045306 21 334 0.0 0.0 0.00 0.00 0.00 88 1016.2
20260906044804 21 334 0.0 0.0 0.00 0.00 0.00 88 1016.1
20260906044304 21 334 0.0 0.0 0.00 0.00 0.00 88 1015.9
20260906043804 21 334 0.0 0.0 0.00 0.00 0.00 88 1015.9
20260906042804 21 334 0.0 0.0 0.00 0.00 0.00 88 1015.7
20260906042306 21 334 0.0 0.0 0.00 0.00 0.00 88 1015.8
20260906040304 21 334 0.0 0.0 0.00 0.00 0.00 88 1015.7
20260906035804 21 334 0.0 0.0 0.00 0.00 0.00 88 1015.6
20260906035306 21 334 0.0 0.0 0.00 0.00 0.00 88 1015.5
20260906034803 21 334 0.0 0.0 0.00 0.00 0.00 88 1015.3
20260906034304 21 334 0.0 0.0 0.00 0.00 0.00 88 1015.3
20260906033804 21 334 0.0 0.0 0.00 0.00 0.00 88 1015.3
20260906033304 21 334 0.0 0.0 0.00 0.00 0.00 88 1015.3
20260906032804 21 334 0.0 0.0 0.00 0.00 0.00 88 1015.4
20260906032306 21 334 0.0 0.0 0.00 0.00 0.00 88 1015.3
20260906031804 21 334 0.0 0.0 0.00 0.00 0.00 88 1015.3
20260906031304 21 334 0.0 0.0 0.00 0.00 0.00 88 1015.3
20260906030804 21 334 0.0 0.0 0.00 0.00 0.00 88 1015.3
20260906030304 22 334 0.0 0.0 0.00 0.00 0.00 88 1015.2
20260906025803 22 334 0.0 0.0 0.00 0.00 0.00 87 1015.2
20260906025306 22 334 0.0 0.0 0.00 0.00 0.00 87 1015.2
20260906024804 22 334 0.0 0.0 0.00 0.00 0.00 87 1015.0
20260906024304 22 334 0.0 0.0 0.00 0.00 0.00 87 1015.1
20260906023804 22 334 0.0 0.0 0.00 0.00 0.00 88 1015.0
20260906023304 22 334 0.0 0.0 0.00 0.00 0.00 87 1015.0
20260906022804 22 334 0.0 0.0 0.00 0.00 0.00 87 1015.0
20260906021304 22 334 0.0 0.0 0.00 0.00 0.00 87 1014.7
20260906020304 22 334 0.0 0.0 0.00 0.00 0.00 87 1014.8
20260906015306 23 334 0.0 1.6 0.00 0.00 0.00 86 1014.8
20260906014805 23 334 0.0 0.0 0.00 0.00 0.00 86 1014.8
20260906014304 23 334 0.0 0.0 0.00 0.00 0.00 86 1014.7
20260906013805 23 334 0.0 0.0 0.00 0.00 0.00 85 1014.6
20260906013304 23 334 0.0 0.0 0.00 0.00 0.00 85 1014.5
20260906012804 23 334 1.6 4.8 0.00 0.00 0.00 84 1014.5
20260906012306 23 334 1.6 4.8 0.00 0.00 0.00 84 1014.2
20260906011804 23 335 3.2 8.0 0.00 0.00 0.00 84 1014.3
20260906011304 24 335 1.6 8.0 0.00 0.00 0.00 84 1014.2
20260906010804 24 335 3.2 8.0 0.00 0.00 0.00 84 1013.9
20260906010305 24 335 4.8 9.7 0.00 0.00 0.00 84 1013.9
20260906005804 24 335 3.2 8.0 0.00 0.00 0.00 85 1013.7
20260906005306 24 334 0.0 1.6 0.00 0.00 0.00 86 1013.6
20260906004804 24 334 0.0 0.0 0.00 0.00 0.00 85 1013.7
20260906004304 24 334 0.0 0.0 0.00 0.00 0.00 85 1013.5
20260906003805 24 334 0.0 0.0 0.00 0.00 0.00 85 1013.5
20260906003304 25 334 0.0 0.0 0.00 0.00 0.00 84 1013.4
20260906002306 25 334 0.0 1.6 0.00 0.00 0.00 84 1013.3
20260906001304 25 334 0.0 1.6 0.00 0.00 0.00 83 1013.2
20260906000804 25 334 0.0 0.0 0.00 0.00 0.00 83 1013.3
20260906000304 25 334 0.0 1.6 0.00 0.00 0.00 82 1013.2
20260905235804 26 334 0.0 0.0 0.00 0.00 0.00 82 1013.0
20260905235306 26 334 0.0 0.0 0.00 0.00 0.00 82 1013.1
20260905234304 26 334 0.0 3.2 0.00 0.00 0.00 81 1013.1
20260905233804 26 334 0.0 0.0 0.00 0.00 0.00 81 1013.2
20260905233304 26 334 0.0 0.0 0.00 0.00 0.00 81 1013.2
20260905232804 26 334 0.0 1.6 0.00 0.00 0.00 81 1013.2
20260905232306 26 334 0.0 1.6 0.00 0.00 0.00 81 1013.1
20260905225804 27 334 0.0 3.2 0.00 0.00 0.00 81 1012.7
20260905224804 27 334 0.0 1.6 0.00 0.00 0.00 80 1012.5
20260905224305 27 334 0.0 0.0 0.00 0.00 0.00 80 1012.5
20260905223804 27 334 1.6 4.8 0.00 0.00 0.00 79 1012.4
20260905222805 27 334 0.0 3.2 0.00 0.00 0.00 80 1012.1
20260905222306 27 334 1.6 4.8 0.00 0.00 0.00 80 1012.2
20260905221804 27 334 1.6 3.2 0.00 0.00 0.00 80 1012.3
20260905221303 27 334 0.0 1.6 0.00 0.00 0.00 80 1012.2
20260905220804 28 334 0.0 3.2 0.00 0.00 0.00 81 1012.2
20260905220304 28 334 0.0 0.0 0.00 0.00 0.00 82 1012.1
20260905215804 28 334 0.0 1.6 0.00 0.00 0.00 81 1012.2
20260905215306 28 334 0.0 4.8 0.00 0.00 0.00 79 1012.0
20260905214804 28 334 0.0 3.2 0.00 0.00 0.00 77 1012.0
20260905214305 28 334 0.0 0.0 0.00 0.00 0.00 77 1012.0
20260905213304 29 334 1.6 4.8 0.00 0.00 0.00 73 1011.8
20260905212805 30 334 0.0 3.2 0.00 0.00 0.00 74 1011.7
20260905212306 30 334 0.0 4.8 0.00 0.00 0.00 73 1011.6
20260905211804 30 334 0.0 3.2 0.00 0.00 0.00 73 1011.7
20260905211305 30 334 0.0 1.6 0.00 0.00 0.00 73 1011.6
20260905210804 30 334 0.0 1.6 0.00 0.00 0.00 73 1011.6
20260905210304 30 334 1.6 4.8 0.00 0.00 0.00 72 1011.7
20260905205804 30 334 0.0 1.6 0.00 0.00 0.00 72 1011.8
20260905204804 30 334 0.0 0.0 0.00 0.00 0.00 71 1011.9
20260905204303 30 334 0.0 0.0 0.00 0.00 0.00 72 1012.0
20260905203804 30 334 0.0 1.6 0.00 0.00 0.00 73 1011.9
20260905203304 30 335 0.0 4.8 0.00 0.00 0.00 73 1012.0
20260905202803 30 335 0.0 0.0 0.00 0.00 0.00 72 1012.0
20260905202306 30 335 0.0 0.0 0.00 0.00 0.00 72 1012.0
20260905201804 30 335 0.0 1.6 0.00 0.00 0.00 73 1012.1
20260905201304 30 335 0.0 0.0 0.00 0.00 0.00 74 1012.2
20260905200804 30 335 0.0 0.0 0.00 0.00 0.00 73 1012.3
20260905200304 30 335 0.0 1.6 0.00 0.00 0.00 72 1012.4
20260905195804 30 335 0.0 0.0 0.00 0.00 0.00 73 1012.4
20260905194804 31 335 0.0 1.6 0.00 0.00 0.00 72 1012.3
20260905194304 31 335 0.0 1.6 0.00 0.00 0.00 73 1012.6
20260905193803 31 335 0.0 1.6 0.00 0.00 0.00 73 1012.6
20260905193304 31 335 0.0 0.0 0.00 0.00 0.00 74 1012.6
20260905192804 31 335 0.0 0.0 0.00 0.00 0.00 72 1012.7
20260905192306 31 335 0.0 0.0 0.00 0.00 0.00 73 1012.7
20260905191804 31 335 0.0 0.0 0.00 0.00 0.00 72 1012.9
20260905191304 31 335 0.0 0.0 0.00 0.00 0.00 75 1012.9
20260905190805 30 334 0.0 1.6 0.00 0.00 0.00 75 1012.9
20260905190304 30 335 0.0 0.0 0.00 0.00 0.00 77 1012.9
20260905185306 30 335 0.0 0.0 0.00 0.00 0.00 75 1012.9
20260905184804 30 335 0.0 0.0 0.00 0.00 0.00 75 1012.9
20260905184304 30 335 0.0 0.0 0.00 0.00 0.00 78 1013.0
20260905183804 29 335 0.0 0.0 0.00 0.00 0.00 78 1013.0
20260905183304 29 335 0.0 0.0 0.00 0.00 0.00 79 1013.2
20260905182804 29 335 0.0 0.0 0.00 0.00 0.00 78 1013.1
20260905182306 28 335 0.0 0.0 0.00 0.00 0.00 78 1013.3
20260905181804 28 335 0.0 0.0 0.00 0.00 0.00 80 1013.2
20260905181304 28 335 0.0 0.0 0.00 0.00 0.00 78 1013.3
20260905180804 28 335 0.0 0.0 0.00 0.00 0.00 80 1013.3
20260905180304 28 335 0.0 0.0 0.00 0.00 0.00 79 1013.4
20260905175804 28 335 0.0 0.0 0.00 0.00 0.00 80 1013.4
20260905175306 27 335 0.0 0.0 0.00 0.00 0.00 81 1013.5
20260905174304 27 335 0.0 0.0 0.00 0.00 0.00 80 1013.5
20260905173804 27 335 0.0 0.0 0.00 0.00 0.00 80 1013.7
20260905173304 27 335 0.0 0.0 0.00 0.00 0.00 80 1013.7
20260905172804 27 335 0.0 0.0 0.00 0.00 0.00 80 1013.8
20260905172305 27 335 0.0 0.0 0.00 0.00 0.00 80 1013.8
20260905171804 27 335 0.0 0.0 0.00 0.00 0.00 80 1013.9
20260905170804 26 335 0.0 0.0 0.00 0.00 0.00 81 1014.0
20260905170304 26 335 0.0 0.0 0.00 0.00 0.00 80 1014.2
20260905165306 26 335 0.0 0.0 0.00 0.00 0.00 80 1014.2
20260905164304 26 335 0.0 0.0 0.00 0.00 0.00 81 1014.1
20260905163804 26 335 0.0 0.0 0.00 0.00 0.00 82 1014.1
20260905163305 26 335 0.0 0.0 0.00 0.00 0.00 82 1014.3
20260905162804 26 335 0.0 0.0 0.00 0.00 0.00 82 1014.3
20260905162306 26 335 0.0 0.0 0.00 0.00 0.00 83 1014.2
20260905161304 21 3 0.0 0.0 0.00 0.00 0.00 88 1014.1
20260905160804 21 3 0.0 0.0 0.00 0.00 0.00 88 1014.1
20260905160304 21 3 0.0 0.0 0.00 0.00 0.00 88 1014.1
20260905154804 21 3 0.0 0.0 0.00 0.00 0.00 88 1014.5
20260905154304 21 2 0.0 0.0 0.00 0.00 0.00 88 1014.4
20260905153804 21 3 0.0 0.0 0.00 0.00 0.00 88 1014.5
20260905153304 21 3 0.0 0.0 0.00 0.00 0.00 88 1014.5
20260905152805 21 3 0.0 0.0 0.00 0.00 0.00 88 1014.4
20260905152306 21 3 0.0 0.0 0.00 0.00 0.00 88 1014.4
20260905151804 21 3 0.0 0.0 0.00 0.00 0.00 88 1014.4
20260905151304 21 3 0.0 0.0 0.00 0.00 0.00 88 1014.2
20260905150304 21 3 0.0 0.0 0.00 0.00 0.00 88 1014.1
20260905144804 21 3 0.0 0.0 0.00 0.00 0.00 88 1014.0
20260905144304 21 3 0.0 0.0 0.00 0.00 0.00 88 1014.1
20260905143803 21 3 0.0 0.0 0.00 0.00 0.00 88 1014.1
20260905143304 21 3 0.0 0.0 0.00 0.00 0.00 88 1014.0
20260905142803 21 3 0.0 0.0 0.00 0.00 0.00 88 1013.9
20260905142306 21 3 0.0 0.0 0.00 0.00 0.00 88 1013.9
20260905141804 21 2 0.0 0.0 0.00 0.00 0.00 88 1013.8
20260905141304 21 3 0.0 0.0 0.00 0.00 0.00 88 1013.7
20260905140804 21 3 0.0 0.0 0.00 0.00 0.00 88 1013.7
20260905140304 21 3 0.0 0.0 0.00 0.00 0.00 88 1013.7
20260905135804 21 3 0.0 0.0 0.00 0.00 0.00 88 1013.6
20260905135306 21 3 0.0 0.0 0.00 0.00 0.00 88 1013.6
20260905134804 21 2 0.0 0.0 0.00 0.00 0.00 88 1013.5
20260905134304 21 3 0.0 0.0 0.00 0.00 0.00 88 1013.5
20260905133804 21 3 0.0 0.0 0.00 0.00 0.00 88 1013.5
20260905133306 21 3 0.0 0.0 0.00 0.00 0.00 88 1013.6
20260905132804 21 1 0.0 0.0 0.00 0.00 0.00 88 1013.6
20260905132305 21 2 0.0 0.0 0.00 0.00 0.00 88 1013.4
20260905131303 21 3 0.0 0.0 0.00 0.00 0.00 88 1013.4
20260905130804 21 3 0.0 0.0 0.00 0.00 0.00 88 1013.3
20260905130304 21 3 0.0 0.0 0.00 0.00 0.00 88 1013.3
20260905125804 21 3 0.0 0.0 0.00 0.00 0.00 88 1013.3
20260905124804 21 2 0.0 0.0 0.00 0.00 0.00 88 1013.3
20260905124304 21 3 0.0 0.0 0.00 0.00 0.00 88 1013.3
20260905123805 21 2 0.0 0.0 0.00 0.00 0.00 88 1013.3
20260905123304 21 335 0.0 0.0 0.00 0.00 0.00 88 1013.3
20260905122804 21 335 0.0 0.0 0.00 0.00 0.00 88 1013.2
20260905122306 21 334 0.0 0.0 0.00 0.00 0.00 88 1013.1
20260905121804 21 334 0.0 0.0 0.00 0.00 0.00 88 1013.3
20260905121304 21 334 0.0 0.0 0.00 0.00 0.00 88 1013.2
20260905120304 21 334 0.0 0.0 0.00 0.00 0.00 88 1013.2
20260905115804 21 334 0.0 0.0 0.00 0.00 0.00 88 1013.0
20260905115306 21 334 0.0 1.6 0.00 0.00 0.00 88 1013.0
20260905114804 22 334 0.0 0.0 0.00 0.00 0.00 88 1012.9
20260905114304 22 334 0.0 0.0 0.00 0.00 0.00 88 1012.8
20260905113804 22 334 0.0 0.0 0.00 0.00 0.00 88 1012.8
20260905113306 22 334 0.0 0.0 0.00 0.00 0.00 88 1012.6
20260905112803 22 334 0.0 0.0 0.00 0.00 0.00 88 1012.7
20260905112306 22 334 0.0 0.0 0.00 0.00 0.00 88 1012.7
20260905111804 22 334 0.0 0.0 0.00 0.00 0.00 88 1012.8
20260905110804 22 334 0.0 0.0 0.00 0.00 0.00 88 1012.7
20260905110304 22 334 0.0 0.0 0.00 0.00 0.00 88 1012.7
20260905105804 22 334 0.0 3.2 0.00 0.00 0.00 88 1012.7
20260905105306 22 334 0.0 0.0 0.00 0.00 0.00 88 1012.5
20260905104803 22 334 0.0 3.2 0.00 0.00 0.00 88 1012.3
20260905104304 23 335 0.0 0.0 0.00 0.00 0.00 88 1012.2
20260905103804 23 334 0.0 0.0 0.00 0.00 0.00 88 1012.3
20260905102805 23 335 0.0 0.0 0.00 0.00 0.00 88 1012.3
20260905102306 23 334 0.0 0.0 0.00 0.00 0.00 88 1012.4
20260905101804 23 335 0.0 0.0 0.00 0.00 0.00 88 1012.4
20260905101304 23 335 0.0 0.0 0.00 0.00 0.00 88 1012.5
20260905100304 23 335 0.0 3.2 0.00 0.00 0.00 88 1012.4
20260905095804 23 335 0.0 0.0 0.00 0.00 0.00 88 1012.5
20260905095306 23 334 0.0 1.6 0.00 0.00 0.00 88 1012.5
20260905094804 23 335 0.0 0.0 0.00 0.00 0.00 88 1012.6
20260905094304 22 334 0.0 0.0 0.00 0.00 0.00 88 1012.7
20260905093804 23 335 0.0 0.0 0.00 0.00 0.00 87 1012.7
20260905093305 23 335 0.0 0.0 0.00 0.00 0.00 88 1012.7
20260905092804 23 335 0.0 0.0 0.00 0.00 0.00 87 1012.8
20260905092306 23 334 0.0 0.0 0.00 0.00 0.00 88 1012.8
20260905091304 23 335 0.0 0.0 0.00 0.00 0.00 88 1012.7